• In Uzbekistan
  • List of Countries
  • For 7 days
  • Water Temperature
  • Weather Map
  • Weather Widgets
  • user-avatar
    Login

    Hourly Weather Kalat

    Today, 9 April, Thursday

    Time Temperature Precipitation Wind Pressure Humidity
    00:00 -6°C° 0.1 mm 3 mps 473 mmHg 80%
    01:00 -6°C° 0.1 mm 3 mps 473 mmHg 82%
    02:00 -5°C° 0.1 mm 2 mps 473 mmHg 84%
    03:00 -5°C° 0.2 mm 2 mps 473 mmHg 85%
    04:00 -5°C° 0.2 mm 2 mps 473 mmHg 85%
    05:00 -6°C° 0 mm 2 mps 473 mmHg 84%
    06:00 -5°C° 0.9 mm 2 mps 473 mmHg 87%
    07:00 -5°C° 0.9 mm 2 mps 474 mmHg 90%
    08:00 -5°C° 0.9 mm 2 mps 474 mmHg 94%
    09:00 -4°C° 0.6 mm 2 mps 475 mmHg 90%
    10:00 -3°C° 0.6 mm 2 mps 476 mmHg 85%
    11:00 -2°C° 0.6 mm 3 mps 477 mmHg 81%
    12:00 -2°C° 0.1 mm 3 mps 477 mmHg 75%
    13:00 -2°C° 0.1 mm 3 mps 477 mmHg 69%
    14:00 -2°C° 0.1 mm 3 mps 476 mmHg 63%
    15:00 -3°C° 0 mm 2 mps 476 mmHg 67%
    16:00 -3°C° 0 mm 2 mps 475 mmHg 70%
    17:00 -4°C° 0 mm 2 mps 474 mmHg 74%
    18:00 -4°C° 0 mm 1 mps 473 mmHg 76%
    19:00 -7°C° 0 mm 1 mps 472 mmHg 79%
    20:00 -9°C° 0 mm 1 mps 470 mmHg 81%
    21:00 -9°C° 0 mm 1 mps 470 mmHg 75%
    22:00 -10°C° 0 mm 1 mps 470 mmHg 69%
    23:00 -10°C° 0 mm 1 mps 470 mmHg 63%

    Tomorrow, 10 April, Friday

    Time Temperature Precipitation Wind Pressure Humidity
    00:00 -10°C° 0 mm 1 mps 469 mmHg 56%
    01:00 -10°C° 0 mm 1 mps 469 mmHg 49%
    02:00 -11°C° 0 mm 1 mps 468 mmHg 42%
    03:00 -11°C° 0 mm 1 mps 468 mmHg 38%
    04:00 -11°C° 0 mm 1 mps 468 mmHg 33%
    05:00 -11°C° 0 mm 1 mps 468 mmHg 28%
    06:00 -9°C° 0 mm 1 mps 470 mmHg 30%
    07:00 -7°C° 0 mm 1 mps 471 mmHg 33%
    08:00 -6°C° 0 mm 1 mps 472 mmHg 35%
    09:00 -3°C° 0 mm 1 mps 474 mmHg 32%
    10:00 -1°C° 0 mm 1 mps 475 mmHg 29%
    11:00 0°C° 0 mm 1 mps 476 mmHg 26%
    12:00 +1°C° 0 mm 1 mps 476 mmHg 29%
    13:00 +2°C° 0 mm 1 mps 477 mmHg 32%
    14:00 +2°C° 0 mm 1 mps 477 mmHg 35%
    15:00 +2°C° 0 mm 1 mps 477 mmHg 40%
    16:00 +2°C° 0 mm 1 mps 476 mmHg 45%
    17:00 +1°C° 0 mm 1 mps 476 mmHg 50%
    18:00 0°C° 0 mm 1 mps 475 mmHg 52%
    19:00 -1°C° 0 mm 1 mps 475 mmHg 53%
    20:00 -3°C° 0 mm 1 mps 474 mmHg 55%
    21:00 -3°C° 0.1 mm 1 mps 474 mmHg 59%
    22:00 -3°C° 0.1 mm 1 mps 474 mmHg 64%
    23:00 -4°C° 0.1 mm 1 mps 474 mmHg 69%

    Day after tomorrow, 11 April, Saturday

    Time Temperature Precipitation Wind Pressure Humidity
    00:00 -4°C° 0 mm 1 mps 473 mmHg 70%
    01:00 -4°C° 0 mm 1 mps 473 mmHg 71%
    02:00 -6°C° 0 mm 1 mps 472 mmHg 71%
    03:00 -6°C° 0 mm 1 mps 472 mmHg 70%
    04:00 -6°C° 0 mm 1 mps 472 mmHg 69%
    05:00 -4°C° 0 mm 1 mps 473 mmHg 68%
    06:00 -3°C° 0 mm 1 mps 474 mmHg 67%
    07:00 -2°C° 0 mm 1 mps 475 mmHg 65%
    08:00 -1°C° 0 mm 1 mps 476 mmHg 64%
    09:00 +1°C° 0 mm 1 mps 477 mmHg 62%
    10:00 +1°C° 0 mm 2 mps 478 mmHg 61%
    11:00 +2°C° 0 mm 2 mps 479 mmHg 60%
    12:00 +3°C° 0 mm 2 mps 479 mmHg 63%
    13:00 +3°C° 0 mm 2 mps 479 mmHg 65%
    14:00 +3°C° 0 mm 3 mps 479 mmHg 68%
    15:00 +3°C° 0 mm 2 mps 479 mmHg 68%
    16:00 +3°C° 0 mm 2 mps 479 mmHg 68%
    17:00 +4°C° 0 mm 1 mps 478 mmHg 69%
    18:00 +2°C° 0 mm 1 mps 477 mmHg 72%
    19:00 +1°C° 0 mm 1 mps 476 mmHg 75%
    20:00 -1°C° 0 mm 1 mps 475 mmHg 79%
    21:00 -1°C° 0 mm 1 mps 475 mmHg 78%
    22:00 -2°C° 0 mm 1 mps 475 mmHg 78%
    23:00 -2°C° 0 mm 1 mps 475 mmHg 78%

    12 April, Sunday

    Time Temperature Precipitation Wind Pressure Humidity
    00:00 -2°C° 0 mm 1 mps 474 mmHg 77%
    01:00 -3°C° 0 mm 1 mps 474 mmHg 75%
    02:00 -3°C° 0 mm 1 mps 474 mmHg 74%
    03:00 -3°C° 0 mm 1 mps 474 mmHg 72%
    04:00 -3°C° 0 mm 1 mps 473 mmHg 70%
    05:00 -3°C° 0 mm 1 mps 473 mmHg 68%
    06:00 -2°C° 0 mm 1 mps 474 mmHg 66%
    07:00 0°C° 0 mm 1 mps 476 mmHg 65%
    08:00 +1°C° 0 mm 1 mps 477 mmHg 64%
    09:00 +2°C° 0 mm 1 mps 477 mmHg 63%
    10:00 +3°C° 0 mm 1 mps 478 mmHg 63%
    11:00 +5°C° 0 mm 1 mps 479 mmHg 62%
    12:00 +5°C° 0 mm 1 mps 479 mmHg 64%
    13:00 +5°C° 0 mm 1 mps 479 mmHg 65%
    14:00 +6°C° 0 mm 1 mps 479 mmHg 67%
    15:00 +6°C° 0.1 mm 1 mps 478 mmHg 67%
    16:00 +5°C° 0.1 mm 1 mps 478 mmHg 67%
    17:00 +5°C° 0.1 mm 1 mps 477 mmHg 68%
    18:00 +3°C° 0 mm 2 mps 477 mmHg 70%
    19:00 +2°C° 0 mm 2 mps 476 mmHg 72%
    20:00 -1°C° 0 mm 3 mps 476 mmHg 74%
    21:00 -1°C° 0 mm 3 mps 476 mmHg 76%
    22:00 -1°C° 0 mm 3 mps 476 mmHg 78%
    23:00 -2°C° 0 mm 2 mps 476 mmHg 79%

    13 April, Monday

    Time Temperature Precipitation Wind Pressure Humidity
    00:00 -1°C° 0.4 mm 2 mps 476 mmHg 81%
    01:00 -1°C° 0.4 mm 2 mps 476 mmHg 83%
    02:00 +1°C° 0.4 mm 1 mps 476 mmHg 85%
    03:00 0°C° 1 mm 1 mps 475 mmHg 88%
    04:00 0°C° 1 mm 1 mps 475 mmHg 91%
    05:00 0°C° 1 mm 1 mps 475 mmHg 94%
    06:00 0°C° 0.1 mm 1 mps 475 mmHg 92%
    07:00 +1°C° 0.1 mm 1 mps 475 mmHg 90%
    08:00 +1°C° 0.1 mm 1 mps 476 mmHg 88%
    09:00 +2°C° 0.1 mm 1 mps 476 mmHg 86%
    10:00 +2°C° 0.1 mm 2 mps 477 mmHg 84%
    11:00 +3°C° 0.1 mm 2 mps 477 mmHg 81%
    12:00 +3°C° 0.4 mm 2 mps 477 mmHg 78%
    13:00 +4°C° 0.4 mm 2 mps 477 mmHg 74%
    14:00 +5°C° 0.4 mm 2 mps 478 mmHg 71%
    15:00 +4°C° 0.3 mm 2 mps 477 mmHg 72%
    16:00 +4°C° 0.3 mm 2 mps 477 mmHg 73%
    17:00 +4°C° 0.3 mm 2 mps 477 mmHg 74%
    18:00 +3°C° 0.4 mm 2 mps 476 mmHg 79%
    19:00 +2°C° 0.4 mm 2 mps 475 mmHg 84%
    20:00 -1°C° 0.4 mm 2 mps 475 mmHg 88%
    21:00 -1°C° 0.8 mm 2 mps 475 mmHg 89%
    22:00 -1°C° 0.8 mm 2 mps 475 mmHg 89%
    23:00 -1°C° 0.8 mm 2 mps 475 mmHg 90%

    14 April, Tuesday

    Time Temperature Precipitation Wind Pressure Humidity
    00:00 -1°C° 1.4 mm 3 mps 474 mmHg 90%
    01:00 -2°C° 1.4 mm 3 mps 474 mmHg 90%
    02:00 -2°C° 1.4 mm 3 mps 474 mmHg 91%
    03:00 -2°C° 0 mm 3 mps 473 mmHg 88%
    04:00 -4°C° 0 mm 3 mps 473 mmHg 86%
    05:00 -4°C° 0 mm 3 mps 472 mmHg 83%
    06:00 -2°C° 0.2 mm 3 mps 473 mmHg 84%
    07:00 -1°C° 0.2 mm 3 mps 474 mmHg 84%
    08:00 -1°C° 0.2 mm 2 mps 475 mmHg 85%
    09:00 +1°C° 0.8 mm 2 mps 475 mmHg 88%
    10:00 +1°C° 0.8 mm 2 mps 476 mmHg 90%
    11:00 0°C° 0.8 mm 3 mps 476 mmHg 92%
    12:00 0°C° 2 mm 3 mps 476 mmHg 92%
    13:00 0°C° 2 mm 3 mps 476 mmHg 92%
    14:00 0°C° 2 mm 3 mps 476 mmHg 92%
    15:00 0°C° 0.7 mm 3 mps 475 mmHg 92%
    16:00 -1°C° 0.7 mm 2 mps 475 mmHg 93%
    17:00 -1°C° 0.7 mm 2 mps 475 mmHg 93%
    18:00 0°C° 0.3 mm 1 mps 474 mmHg 94%
    19:00 -1°C° 0.3 mm 1 mps 474 mmHg 95%
    20:00 -2°C° 0.3 mm 1 mps 473 mmHg 96%
    21:00 -3°C° 0.1 mm 1 mps 473 mmHg 94%
    22:00 -3°C° 0.1 mm 1 mps 473 mmHg 93%
    23:00 -4°C° 0.1 mm 1 mps 473 mmHg 92%
    Show more